sat.trackr.live / text

‹ back to catalog

STARLINK-32399

NORAD 61627 · 2024-191G

PAYLOAD ACTIVE UNKNOWN

§ Identity

Operator
Country
US
Launch date
2024-10-23
Launch site
AFETR
Launch vehicle
Mass (kg)
RCS (m²)

Purposes: comms

External: N2YO · Heavens-Above · Gunter

§ Orbital elements

Epoch: 2026-05-25T04:49:34.152672Z

Period
94.27 min
Inclination
43.0046°
Eccentricity
0.0001191
Mean motion
15.27594370 rev/d
Perigee alt
482.2 km
Apogee alt
483.8 km
Semi-major
6,861.1 km
B*
-9.7913e-5
RAAN
74.9783°
Arg perigee
266.5346°
Mean anomaly
93.5370°
Rev number
8,932

§ Raw data

STARLINK-323991 61627U 24191G   26145.20108973 -.00002957  00000+0 -97913-4 0  99942 61627  43.0046  74.9783 0001191 266.5346  93.5370 15.27594370 89325

JSON: /api/v1/satellites/61627 · /tle

For live sub-satellite position, see the globe view (requires WebGL).

§ Visibility from observer

Set your observer location to see the next 7 days of passes ≥ 10°. The values pass through the URL so the page stays shareable.

No JS? Fill the form by hand. The geolocation button needs JavaScript.